Nagpur Sonegaon, India

5:13 PM IST on July 28, 2016 (GMT +0530)
Nagpur

Weather History for VANP - May, 2013

Change the Weather History Date:

Sunday, May 12, 2013

  Actual Average Record
Temperature  
Mean Temperature 94 °F -  
Max Temperature 111 °F 105 °F - ()
Min Temperature 78 °F 81 °F - ()
Cooling Degree Days 30    
Growing Degree Days 44 (Base 50)    
Moisture  
Dew Point 61 °F    
Average Humidity 28    
Maximum Humidity 54    
Minimum Humidity 16    
Precipitation  
Precipitation 0.00 in 0.10 in - ()
Sea Level Pressure  
Sea Level Pressure 29.64 in    
Wind  
Wind Speed 3 mph ()    
Max Wind Speed 10 mph    
Max Gust Speed -    
Visibility 3.2 miles    
Events Rain    
T = Trace of Precipitation, MM = Missing Value Source: Averaged Metar Reports

Daily Weather History Graph

Daily Weather History Graph

Search for Another Location

Airport or City:

Trip Planner

Search our weather history database for the weather conditions in past years. The results will help you decide how hot, cold, wet, or windy it might be!

Date:

Astronomy

May. 12, 2013 Rise Set
Actual Time 5:37 AM IST 6:43 PM IST
Civil Twilight 5:13 AM IST 7:06 PM IST
Nautical Twilight 4:45 AM IST 7:35 PM IST
Astronomical Twilight 4:16 AM IST 8:03 PM IST
Moon 7:14 AM IST (5/12) 8:44 PM IST (5/12)
Length of Visible Light 13h 53m
Length of Day
13h 05m
Waxing Crescent, 5% of the Moon is Illuminated
May 12
Waxing Crescent
May 18
First Quarter
May 25
Full
Jun 1
Last Quarter
Jun 8
New

Hourly Weather History & Observations

Time (IST) Temp. Heat Index Dew Point Humidity Pressure Visibility Wind Dir Wind Speed Gust Speed Precip Events Conditions
2:10 AM 91.4 °F - 51.8 °F 26% - - North - - N/A   Haze
2:30 AM 89 °F - 59 °F 26% 29.56 in 2 mi Calm Calm - -   Haze
5:30 AM 80 °F - 64 °F 48% 29.66 in 2 mi Calm Calm - - Rain Light Rain
5:40 AM 80.6 °F 81.8 °F 62.6 °F 54% 29.71 in 3.1 mi Calm Calm - N/A   Haze
6:10 AM 82.4 °F 83.4 °F 62.6 °F 51% 29.71 in 3.1 mi Calm Calm - N/A   Haze
6:40 AM 84.2 °F 85.0 °F 62.6 °F 48% 29.71 in 3.1 mi Calm Calm - N/A   Haze
8:10 AM 93.2 °F 93.3 °F 60.8 °F 34% 29.74 in 3.1 mi Calm Calm - N/A   Haze
8:30 AM 97 °F - 60 °F 20% 29.67 in 2 mi Calm Calm - -   Scattered Clouds
8:40 AM 98.6 °F 99.4 °F 60.8 °F 29% 29.74 in 3.7 mi Calm Calm - N/A   Scattered Clouds
9:10 AM 100.4 °F 101.3 °F 60.8 °F 27% 29.74 in - Calm Calm - N/A   Scattered Clouds
9:40 AM 102.2 °F 103.6 °F 60.8 °F 26% 29.77 in 3.7 mi NE 3.5 mph - N/A   Scattered Clouds
10:40 AM 104.0 °F 106.6 °F 62.6 °F 26% 29.74 in 3.7 mi NNW 6.9 mph - N/A   Unknown
11:10 AM 104.0 °F 106.6 °F 62.6 °F 26% 29.74 in 3.7 mi North 5.8 mph - N/A   Unknown
11:30 AM 104 °F - 63 °F 18% 29.63 in 2 mi North 4.6 mph - -   Partly Cloudy
12:10 PM 104.0 °F 106.6 °F 62.6 °F 26% 29.71 in 3.7 mi NNW 5.8 mph - N/A   Scattered Clouds
2:10 PM 107.6 °F 110.6 °F 62.6 °F 23% 29.65 in 3.7 mi West 8.1 mph - N/A   Scattered Clouds
2:30 PM 110 °F - 65 °F 16% 29.53 in 2 mi NW 4.6 mph - -   Scattered Clouds
2:40 PM 109.4 °F 113.7 °F 64.4 °F 23% 29.62 in 3.7 mi NW 2.3 mph - N/A   Scattered Clouds
3:10 PM 111.2 °F 116.0 °F 64.4 °F 22% 29.62 in 3.7 mi WNW 6.9 mph - N/A   Scattered Clouds
3:40 PM 111.2 °F 116.0 °F 64.4 °F 22% 29.59 in 3.7 mi NW 6.9 mph - N/A   Scattered Clouds
4:10 PM 113.0 °F 118.1 °F 64.4 °F 21% 29.59 in 3.7 mi West 10.4 mph - N/A   Scattered Clouds
4:40 PM 109.4 °F 112.8 °F 62.6 °F 22% 29.56 in 3.7 mi NW 4.6 mph - N/A   Scattered Clouds
5:10 PM 109.4 °F 112.8 °F 62.6 °F 22% 29.56 in 3.7 mi West 9.2 mph - N/A   Scattered Clouds
5:30 PM 105 °F - 64 °F 18% 29.48 in 2 mi West 9.2 mph - -   Scattered Clouds
5:40 PM 107.6 °F 112.3 °F 64.4 °F 25% 29.56 in 3.7 mi West 5.8 mph - N/A   Scattered Clouds
6:10 PM 105.8 °F 108.3 °F 62.6 °F 24% 29.56 in 3.7 mi West 2.3 mph - N/A   Scattered Clouds
6:40 PM 105.8 °F 108.3 °F 62.6 °F 24% 29.56 in 3.7 mi West 2.3 mph - N/A   Scattered Clouds
7:10 PM 104.0 °F 106.6 °F 62.6 °F 26% 29.59 in 3.7 mi West 6.9 mph - N/A   Scattered Clouds
7:40 PM 102.2 °F 103.6 °F 60.8 °F 26% 29.59 in 3.7 mi West 2.3 mph - N/A   Partly Cloudy
8:30 PM 95 °F - 60 °F 22% 29.56 in 2 mi WSW 4.6 mph - -   Scattered Clouds
8:40 PM 95.0 °F 95.2 °F 60.8 °F 32% 29.65 in 3.7 mi WSW 5.8 mph - N/A   Partly Cloudy
9:10 PM 95.0 °F 94.4 °F 59.0 °F 30% 29.65 in - North - - N/A   Partly Cloudy
9:40 PM 93.2 °F 92.6 °F 59.0 °F 32% 29.68 in 3.7 mi WSW 6.9 mph - N/A   Unknown
10:10 PM 91.4 °F 90.7 °F 59.0 °F 34% 29.68 in - North - - N/A   Unknown
11:10 PM 89.6 °F 88.1 °F 57.2 °F 33% 29.68 in 3.7 mi West 4.6 mph - N/A   Unknown
11:30 PM 89 °F - 55 °F 21% 29.61 in 2 mi WNW 4.6 mph - -   Scattered Clouds